This is the latest recevied weather packets stored in our database for station/object DD3UTS-13. If no packets are shown the sender has not sent any weather packets the latest 10 day(s).
| Time | Temp. | Humidity | Pressure | Rain* | Wind** | Luminosity | Snow |
|---|---|---|---|---|---|---|---|
| 1777466732 | 13.89° C | 29% | 1026.4 hPa | 0 mm | - | 545 W/m² | - |
| 1777466432 | 14.44° C | 29% | 1026.3 hPa | 0 mm | - | 543 W/m² | - |
| 1777466132 | 14.44° C | 29% | 1026.2 hPa | 0 mm | - | 543 W/m² | - |
| 1777465832 | 14.44° C | 29% | 1026.2 hPa | 0 mm | - | 544 W/m² | - |
| 1777465531 | 14.44° C | 30% | 1026.2 hPa | 0 mm | - | 541 W/m² | - |
| 1777465232 | 14.44° C | 30% | 1026.2 hPa | 0 mm | - | 542 W/m² | - |
| 1777464932 | 14.44° C | 31% | 1026.2 hPa | 0 mm | - | 541 W/m² | - |
| 1777464631 | 13.89° C | 31% | 1026.1 hPa | 0 mm | - | 541 W/m² | - |
| 1777464331 | 13.89° C | 30% | 1026.2 hPa | 0 mm | - | 544 W/m² | - |
| 1777464032 | 15° C | 31% | 1026 hPa | 0 mm | - | 545 W/m² | - |
| 1777463731 | 15° C | 31% | 1026.1 hPa | 0 mm | - | 546 W/m² | - |
| 1777463432 | 14.44° C | 31% | 1026.1 hPa | 0 mm | - | 546 W/m² | - |
| 1777463131 | 14.44° C | 31% | 1026.1 hPa | 0 mm | - | 546 W/m² | - |
| 1777462832 | 13.89° C | 31% | 1026.1 hPa | 0 mm | - | 542 W/m² | - |
| 1777462531 | 13.89° C | 32% | 1026.1 hPa | 0 mm | - | 542 W/m² | - |
| 1777462232 | 13.33° C | 32% | 1026 hPa | 0 mm | - | 538 W/m² | - |
| 1777461932 | 13.33° C | 33% | 1026.1 hPa | 0 mm | - | 541 W/m² | - |
| 1777461637 | 12.78° C | 33% | 1026.1 hPa | 0 mm | - | 541 W/m² | - |
| 1777461332 | 12.78° C | 33% | 1026.1 hPa | 0 mm | - | 540 W/m² | - |
| 1777461032 | 13.33° C | 32% | 1026.2 hPa | 0 mm | - | 537 W/m² | - |
| 1777460732 | 13.33° C | 34% | 1026.3 hPa | 0 mm | - | 536 W/m² | - |
| 1777460432 | 12.78° C | 33% | 1026.2 hPa | 0 mm | - | 533 W/m² | - |
| 1777460131 | 12.78° C | 33% | 1026.4 hPa | 0 mm | - | 534 W/m² | - |
| 1777459832 | 12.78° C | 35% | 1026.4 hPa | 0 mm | - | 532 W/m² | - |
| 1777459532 | 12.22° C | 33% | 1026.3 hPa | 0 mm | - | 534 W/m² | - |
* Rain latest 24 hours (hover to see other rain measurements)
** Current wind speed in m/s (hover to see current wind gust speed)